Location: Carrer del Canonge
(41.4901°N, 2.2931°E)
Time: 05:03:01
(UTC+00:00)

Cosmos 807 - Pass Details

Date: 18 September 2020
Orbit: 372 x 1185 km, 82.9° (Epoch: 25 October)

Event Time Altitude Azimuth Distance (km) Brightness Sun altitude
Rises 18:42:47 0° 183° (S) 2,231 7.9 -9.8°
Reaches altitude 10° 18:44:39 10° 182° (S) 1,414 6.8 -10.2°
Maximum altitude 18:47:38 78° 96° (E) 433 4.1 -10.7°
Drops below altitude 10° 18:51:06 10° 10° (N) 1,637 7.3 -11.4°
Sets 18:53:24 0° 9° (N) 2,634 8.3 -11.8°
